Time,TemperatureF,DewpointF,PressureIn,WindDirection,WindDirectionDegrees,WindSpeedMPH,WindSpeedGustMPH,Humidity,HourlyPrecipIn,Conditions,Clouds,dailyrainin,SolarRadiationWatts/m^2,SoftwareType,DateUTC
2013-02-26 00:02:00,40.8,31.7,30.06,NNW,327,2.0,4.0,70,0.00,,,0.00,0,HR-IXPWINDi_r2_v1.2.,2013-02-26 08:02:00,
2013-02-26 00:07:00,40.9,31.5,30.06,NW,326,0.0,4.0,69,0.00,,,0.00,0,HR-IXPWINDi_r2_v1.2.,2013-02-26 08:07:00,
2013-02-26 00:12:00,41.0,31.6,30.06,NW,325,0.0,4.0,69,0.00,,,0.00,0,HR-IXPWINDi_r2_v1.2.,2013-02-26 08:12:00,
2013-02-26 00:17:00,40.2,31.9,30.06,NW,325,0.0,2.0,72,0.00,,,0.00,0,HR-IXPWINDi_r2_v1.2.,2013-02-26 08:17:00,
2013-02-26 00:22:00,39.3,31.7,30.06,NW,325,0.0,0.0,74,0.00,,,0.00,0,HR-IXPWINDi_r2_v1.2.,2013-02-26 08:22:00,
2013-02-26 00:27:00,38.3,31.0,30.05,NW,325,0.0,0.0,75,0.00,,,0.00,0,HR-IXPWINDi_r2_v1.2.,2013-02-26 08:27:00,
2013-02-26 00:32:00,37.6,31.0,30.05,NW,325,1.0,2.0,77,0.00,,,0.00,0,HR-IXPWINDi_r2_v1.2.,2013-02-26 08:32:00,
2013-02-26 00:38:00,37.2,31.3,30.05,NW,325,1.0,2.0,79,0.00,,,0.00,0,HR-IXPWINDi_r2_v1.2.,2013-02-26 08:38:00,
2013-02-26 00:43:00,37.2,31.6,30.05,NW,325,0.0,2.0,80,0.00,,,0.00,0,HR-IXPWINDi_r2_v1.2.,2013-02-26 08:43:00,
2013-02-26 00:48:00,37.1,31.5,30.05,NW,325,0.0,2.0,80,0.00,,,0.00,0,HR-IXPWINDi_r2_v1.2.,2013-02-26 08:48:00,
2013-02-26 00:53:00,37.1,31.5,30.05,NW,325,0.0,2.0,80,0.00,,,0.00,0,HR-IXPWINDi_r2_v1.2.,2013-02-26 08:53:00,
2013-02-26 00:58:00,36.7,31.4,30.04,NW,325,3.0,3.0,81,0.00,,,0.00,0,HR-IXPWINDi_r2_v1.2.,2013-02-26 08:58:00,
2013-02-26 01:03:00,36.6,31.0,30.04,NW,326,2.0,3.0,80,0.00,,,0.00,0,HR-IXPWINDi_r2_v1.2.,2013-02-26 09:03:00,
2013-02-26 01:09:00,36.7,31.4,30.04,NNW,327,0.0,3.0,81,0.00,,,0.00,0,HR-IXPWINDi_r2_v1.2.,2013-02-26 09:09:00,
2013-02-26 01:14:00,36.6,31.3,30.04,NNW,327,0.0,3.0,81,0.00,,,0.00,0,HR-IXPWINDi_r2_v1.2.,2013-02-26 09:14:00,
2013-02-26 01:19:00,36.4,31.1,30.04,NNW,327,0.0,3.0,81,0.00,,,0.00,0,HR-IXPWINDi_r2_v1.2.,2013-02-26 09:19:00,
2013-02-26 01:24:00,36.5,31.2,30.03,NNW,327,0.0,1.0,81,0.00,,,0.00,0,HR-IXPWINDi_r2_v1.2.,2013-02-26 09:24:00,
2013-02-26 01:29:00,36.2,30.9,30.03,NNW,327,0.0,0.0,81,0.00,,,0.00,0,HR-IXPWINDi_r2_v1.2.,2013-02-26 09:29:00,
2013-02-26 01:35:00,36.2,30.9,30.03,NNW,327,0.0,2.0,81,0.00,,,0.00,0,HR-IXPWINDi_r2_v1.2.,2013-02-26 09:35:00,
2013-02-26 01:40:00,36.0,30.7,30.03,NNW,327,2.0,2.0,81,0.00,,,0.00,0,HR-IXPWINDi_r2_v1.2.,2013-02-26 09:40:00,
2013-02-26 01:45:00,35.8,30.5,30.03,NNW,327,1.0,2.0,81,0.00,,,0.00,0,HR-IXPWINDi_r2_v1.2.,2013-02-26 09:45:00,
2013-02-26 01:50:00,35.6,30.6,30.02,NNW,328,4.0,4.0,82,0.00,,,0.00,0,HR-IXPWINDi_r2_v1.2.,2013-02-26 09:50:00,
2013-02-26 01:55:00,35.9,31.2,30.02,NNW,328,0.0,4.0,83,0.00,,,0.00,0,HR-IXPWINDi_r2_v1.2.,2013-02-26 09:55:00,
2013-02-26 02:01:00,35.8,30.8,30.02,NW,326,1.0,3.0,82,0.00,,,0.00,0,HR-IXPWINDi_r2_v1.2.,2013-02-26 10:01:00,
2013-02-26 02:06:00,36.0,31.0,30.02,NW,326,1.0,2.0,82,0.00,,,0.00,0,HR-IXPWINDi_r2_v1.2.,2013-02-26 10:06:00,
2013-02-26 02:11:00,36.1,31.1,30.02,WNW,295,3.0,4.0,82,0.00,,,0.00,0,HR-IXPWINDi_r2_v1.2.,2013-02-26 10:11:00,
2013-02-26 02:16:00,38.7,31.8,30.02,NW,320,3.0,6.0,76,0.00,,,0.00,0,HR-IXPWINDi_r2_v1.2.,2013-02-26 10:16:00,
2013-02-26 02:22:00,39.6,30.9,30.02,NW,318,2.0,6.0,71,0.00,,,0.00,0,HR-IXPWINDi_r2_v1.2.,2013-02-26 10:22:00,
2013-02-26 02:27:00,40.7,30.6,30.01,NW,315,2.0,7.0,67,0.00,,,0.00,0,HR-IXPWINDi_r2_v1.2.,2013-02-26 10:27:00,
2013-02-26 02:32:00,41.6,30.3,30.01,WNW,295,3.0,7.0,64,0.00,,,0.00,0,HR-IXPWINDi_r2_v1.2.,2013-02-26 10:32:00,
2013-02-26 02:37:00,41.7,29.6,30.01,NW,305,2.0,6.0,62,0.00,,,0.00,0,HR-IXPWINDi_r2_v1.2.,2013-02-26 10:37:00,
2013-02-26 02:42:00,41.6,29.5,30.01,NW,319,3.0,5.0,62,0.00,,,0.00,0,HR-IXPWINDi_r2_v1.2.,2013-02-26 10:42:00,
2013-02-26 02:47:00,41.2,29.5,30.01,NW,315,1.0,4.0,63,0.00,,,0.00,0,HR-IXPWINDi_r2_v1.2.,2013-02-26 10:47:00,
2013-02-26 02:52:00,39.8,29.3,30.00,NW,323,1.0,3.0,66,0.00,,,0.00,0,HR-IXPWINDi_r2_v1.2.,2013-02-26 10:52:00,
2013-02-26 02:57:00,39.5,29.8,30.00,NW,323,1.0,3.0,68,0.00,,,0.00,0,HR-IXPWINDi_r2_v1.2.,2013-02-26 10:57:00,
2013-02-26 03:03:00,39.7,29.6,30.00,NW,323,1.0,2.0,67,0.00,,,0.00,0,HR-IXPWINDi_r2_v1.2.,2013-02-26 11:03:00,
2013-02-26 03:08:00,38.9,29.6,30.00,NW,323,0.0,2.0,69,0.00,,,0.00,0,HR-IXPWINDi_r2_v1.2.,2013-02-26 11:08:00,
2013-02-26 03:13:00,38.5,29.2,30.01,NW,323,0.0,1.0,69,0.00,,,0.00,0,HR-IXPWINDi_r2_v1.2.,2013-02-26 11:13:00,
2013-02-26 03:18:00,38.4,29.1,30.00,NW,323,1.0,2.0,69,0.00,,,0.00,0,HR-IXPWINDi_r2_v1.2.,2013-02-26 11:18:00,
2013-02-26 03:24:00,38.1,29.2,30.00,NW,323,0.0,2.0,70,0.00,,,0.00,0,HR-IXPWINDi_r2_v1.2.,2013-02-26 11:24:00,
2013-02-26 03:29:00,37.7,28.8,30.01,NW,323,3.0,3.0,70,0.00,,,0.00,0,HR-IXPWINDi_r2_v1.2.,2013-02-26 11:29:00,
2013-02-26 03:34:00,38.5,28.8,30.00,NW,305,1.0,4.0,68,0.00,,,0.00,0,HR-IXPWINDi_r2_v1.2.,2013-02-26 11:34:00,
2013-02-26 03:39:00,38.2,29.6,30.00,NW,311,2.0,4.0,71,0.00,,,0.00,0,HR-IXPWINDi_r2_v1.2.,2013-02-26 11:39:00,
2013-02-26 03:45:00,38.7,29.4,30.01,NW,311,1.0,3.0,69,0.00,,,0.00,0,HR-IXPWINDi_r2_v1.2.,2013-02-26 11:45:00,
2013-02-26 03:50:00,37.6,29.0,30.01,NW,311,1.0,3.0,71,0.00,,,0.00,0,HR-IXPWINDi_r2_v1.2.,2013-02-26 11:50:00,
2013-02-26 03:55:00,37.5,28.9,30.00,NW,311,2.0,3.0,71,0.00,,,0.00,0,HR-IXPWINDi_r2_v1.2.,2013-02-26 11:55:00,
2013-02-26 04:01:00,38.0,29.4,30.00,NW,320,1.0,4.0,71,0.00,,,0.00,0,HR-IXPWINDi_r2_v1.2.,2013-02-26 12:01:00,
2013-02-26 04:06:00,39.1,29.0,30.00,WNW,295,2.0,4.0,67,0.00,,,0.00,0,HR-IXPWINDi_r2_v1.2.,2013-02-26 12:06:00,
2013-02-26 04:11:00,40.4,28.8,30.00,NW,308,1.0,4.0,63,0.00,,,0.00,0,HR-IXPWINDi_r2_v1.2.,2013-02-26 12:11:00,
2013-02-26 04:16:00,40.7,28.3,30.00,WNW,291,4.0,4.0,61,0.00,,,0.00,0,HR-IXPWINDi_r2_v1.2.,2013-02-26 12:16:00,
2013-02-26 04:21:00,41.5,28.2,30.00,WNW,299,1.0,5.0,59,0.00,,,0.00,0,HR-IXPWINDi_r2_v1.2.,2013-02-26 12:21:00,
2013-02-26 04:26:00,41.3,28.0,30.00,WNW,299,3.0,5.0,59,0.00,,,0.00,0,HR-IXPWINDi_r2_v1.2.,2013-02-26 12:26:00,
2013-02-26 04:31:00,40.6,28.2,30.00,WNW,298,2.0,3.0,61,0.00,,,0.00,0,HR-IXPWINDi_r2_v1.2.,2013-02-26 12:31:00,
2013-02-26 04:37:00,40.1,28.1,30.00,WNW,294,1.0,4.0,62,0.00,,,0.00,0,HR-IXPWINDi_r2_v1.2.,2013-02-26 12:37:00,
2013-02-26 04:42:00,39.6,28.4,30.00,WNW,294,0.0,4.0,64,0.00,,,0.00,0,HR-IXPWINDi_r2_v1.2.,2013-02-26 12:42:00,
2013-02-26 04:47:00,38.7,28.7,30.00,WNW,296,1.0,3.0,67,0.00,,,0.00,0,HR-IXPWINDi_r2_v1.2.,2013-02-26 12:47:00,
2013-02-26 04:53:00,40.3,27.9,30.01,NW,313,2.0,5.0,61,0.00,,,0.00,0,HR-IXPWINDi_r2_v1.2.,2013-02-26 12:53:00,
2013-02-26 04:58:00,40.8,27.6,30.00,NW,319,1.0,5.0,59,0.00,,,0.00,0,HR-IXPWINDi_r2_v1.2.,2013-02-26 12:58:00,
2013-02-26 05:03:00,40.2,27.8,30.01,WNW,301,2.0,4.0,61,0.00,,,0.00,0,HR-IXPWINDi_r2_v1.2.,2013-02-26 13:03:00,
2013-02-26 05:08:00,40.6,27.4,30.01,WNW,303,3.0,5.0,59,0.00,,,0.00,0,HR-IXPWINDi_r2_v1.2.,2013-02-26 13:08:00,
2013-02-26 05:13:00,41.1,27.4,30.01,NW,317,2.0,5.0,58,0.00,,,0.00,0,HR-IXPWINDi_r2_v1.2.,2013-02-26 13:13:00,
2013-02-26 05:19:00,40.8,27.2,30.01,NW,306,2.0,5.0,58,0.00,,,0.00,0,HR-IXPWINDi_r2_v1.2.,2013-02-26 13:19:00,
2013-02-26 05:24:00,39.9,27.9,30.01,NW,312,1.0,4.0,62,0.00,,,0.00,0,HR-IXPWINDi_r2_v1.2.,2013-02-26 13:24:00,
2013-02-26 05:29:00,40.0,27.6,30.01,NW,324,3.0,5.0,61,0.00,,,0.00,0,HR-IXPWINDi_r2_v1.2.,2013-02-26 13:29:00,
2013-02-26 05:34:00,40.1,27.7,30.01,NW,322,3.0,5.0,61,0.00,,,0.00,0,HR-IXPWINDi_r2_v1.2.,2013-02-26 13:34:00,
2013-02-26 05:39:00,40.9,27.2,30.01,NW,316,3.0,6.0,58,0.00,,,0.00,0,HR-IXPWINDi_r2_v1.2.,2013-02-26 13:39:00,
2013-02-26 05:44:00,41.8,26.8,30.01,NW,325,5.0,6.0,55,0.00,,,0.00,0,HR-IXPWINDi_r2_v1.2.,2013-02-26 13:44:00,
2013-02-26 05:49:00,42.7,26.7,30.01,WNW,303,4.0,7.0,53,0.00,,,0.00,0,HR-IXPWINDi_r2_v1.2.,2013-02-26 13:49:00,
2013-02-26 05:55:00,42.4,26.5,30.01,NW,323,4.0,7.0,53,0.00,,,0.00,0,HR-IXPWINDi_r2_v1.2.,2013-02-26 13:55:00,
2013-02-26 06:00:00,42.4,26.5,30.01,NW,310,3.0,6.0,53,0.00,,,0.00,0,HR-IXPWINDi_r2_v1.2.,2013-02-26 14:00:00,
2013-02-26 06:05:00,42.2,26.3,30.01,NNW,332,6.0,6.0,53,0.00,,,0.00,0,HR-IXPWINDi_r2_v1.2.,2013-02-26 14:05:00,
2013-02-26 06:10:00,42.6,26.2,30.01,NW,307,4.0,6.0,52,0.00,,,0.00,0,HR-IXPWINDi_r2_v1.2.,2013-02-26 14:10:00,
2013-02-26 06:15:00,42.4,26.0,30.01,WNW,294,2.0,7.0,52,0.00,,,0.00,0,HR-IXPWINDi_r2_v1.2.,2013-02-26 14:15:00,
2013-02-26 06:20:00,41.7,25.8,30.01,WNW,302,2.0,7.0,53,0.00,,,0.00,0,HR-IXPWINDi_r2_v1.2.,2013-02-26 14:20:00,
2013-02-26 06:26:00,40.7,27.1,30.01,NW,325,3.0,5.0,58,0.00,,,0.00,0,HR-IXPWINDi_r2_v1.2.,2013-02-26 14:26:00,
2013-02-26 06:31:00,40.3,26.3,30.01,NNW,339,2.0,4.0,57,0.00,,,0.00,5,HR-IXPWINDi_r2_v1.2.,2013-02-26 14:31:00,
2013-02-26 06:36:00,40.1,26.5,30.01,NNW,336,1.0,4.0,58,0.00,,,0.00,7,HR-IXPWINDi_r2_v1.2.,2013-02-26 14:36:00,
2013-02-26 06:41:00,39.4,26.7,30.01,NNW,346,1.0,4.0,60,0.00,,,0.00,9,HR-IXPWINDi_r2_v1.2.,2013-02-26 14:41:00,
2013-02-26 06:46:00,39.8,26.6,30.01,NW,311,2.0,4.0,59,0.00,,,0.00,12,HR-IXPWINDi_r2_v1.2.,2013-02-26 14:46:00,
2013-02-26 06:52:00,40.0,26.8,30.01,NW,325,0.0,3.0,59,0.00,,,0.00,14,HR-IXPWINDi_r2_v1.2.,2013-02-26 14:52:00,
2013-02-26 06:57:00,40.7,26.2,30.01,NW,321,3.0,4.0,56,0.00,,,0.00,16,HR-IXPWINDi_r2_v1.2.,2013-02-26 14:57:00,
2013-02-26 07:02:00,41.5,26.5,30.02,NW,323,1.0,4.0,55,0.00,,,0.00,65,HR-IXPWINDi_r2_v1.2.,2013-02-26 15:02:00,
2013-02-26 07:07:00,41.8,26.8,30.02,NW,309,3.0,5.0,55,0.00,,,0.00,76,HR-IXPWINDi_r2_v1.2.,2013-02-26 15:07:00,
2013-02-26 07:12:00,41.8,26.8,30.02,NW,313,0.0,6.0,55,0.00,,,0.00,76,HR-IXPWINDi_r2_v1.2.,2013-02-26 15:12:00,
2013-02-26 07:18:00,44.5,27.5,30.02,NW,307,1.0,6.0,51,0.00,,,0.00,109,HR-IXPWINDi_r2_v1.2.,2013-02-26 15:18:00,
2013-02-26 07:23:00,45.4,27.3,30.02,NNW,327,2.0,5.0,49,0.00,,,0.00,127,HR-IXPWINDi_r2_v1.2.,2013-02-26 15:23:00,
2013-02-26 07:28:00,46.0,28.4,30.02,NW,314,2.0,4.0,50,0.00,,,0.00,135,HR-IXPWINDi_r2_v1.2.,2013-02-26 15:28:00,
2013-02-26 07:34:00,46.9,27.7,30.03,NNW,337,4.0,5.0,47,0.00,,,0.00,163,HR-IXPWINDi_r2_v1.2.,2013-02-26 15:34:00,
2013-02-26 07:39:00,47.7,27.4,30.03,NW,319,3.0,7.0,45,0.00,,,0.00,109,HR-IXPWINDi_r2_v1.2.,2013-02-26 15:39:00,
2013-02-26 07:44:00,48.6,27.7,30.03,NW,308,4.0,8.0,44,0.00,,,0.00,153,HR-IXPWINDi_r2_v1.2.,2013-02-26 15:44:00,
2013-02-26 07:49:00,49.5,27.9,30.02,NNW,331,2.0,8.0,43,0.00,,,0.00,62,HR-IXPWINDi_r2_v1.2.,2013-02-26 15:49:00,
2013-02-26 07:54:00,50.1,29.0,30.03,NNW,341,3.0,6.0,44,0.00,,,0.00,81,HR-IXPWINDi_r2_v1.2.,2013-02-26 15:54:00,
2013-02-26 07:59:00,50.5,28.2,30.03,North,5,2.0,5.0,42,0.00,,,0.00,100,HR-IXPWINDi_r2_v1.2.,2013-02-26 15:59:00,
2013-02-26 08:04:00,51.4,30.2,30.03,NNW,340,4.0,5.0,44,0.00,,,0.00,76,HR-IXPWINDi_r2_v1.2.,2013-02-26 16:04:00,
2013-02-26 08:09:00,52.2,30.4,30.03,NNE,15,1.0,4.0,43,0.00,,,0.00,188,HR-IXPWINDi_r2_v1.2.,2013-02-26 16:09:00,
2013-02-26 08:15:00,53.0,30.5,30.03,North,349,3.0,5.0,42,0.00,,,0.00,70,HR-IXPWINDi_r2_v1.2.,2013-02-26 16:15:00,
2013-02-26 08:20:00,53.7,31.1,30.03,NNE,16,1.0,5.0,42,0.00,,,0.00,88,HR-IXPWINDi_r2_v1.2.,2013-02-26 16:20:00,
2013-02-26 08:25:00,54.3,32.8,30.03,North,355,2.0,5.0,44,0.00,,,0.00,223,HR-IXPWINDi_r2_v1.2.,2013-02-26 16:25:00,
2013-02-26 08:31:00,54.7,34.3,30.03,NNE,19,1.0,3.0,46,0.00,,,0.00,113,HR-IXPWINDi_r2_v1.2.,2013-02-26 16:31:00,
2013-02-26 08:36:00,55.5,34.5,30.03,NNE,19,1.0,3.0,45,0.00,,,0.00,62,HR-IXPWINDi_r2_v1.2.,2013-02-26 16:36:00,
2013-02-26 08:41:00,56.4,31.1,30.03,NNE,19,0.0,2.0,38,0.00,,,0.00,84,HR-IXPWINDi_r2_v1.2.,2013-02-26 16:41:00,
2013-02-26 08:46:00,57.3,33.8,30.03,NNE,24,0.0,2.0,41,0.00,,,0.00,95,HR-IXPWINDi_r2_v1.2.,2013-02-26 16:46:00,
2013-02-26 08:52:00,57.8,31.7,30.03,NNE,26,1.0,3.0,37,0.00,,,0.00,77,HR-IXPWINDi_r2_v1.2.,2013-02-26 16:52:00,
2013-02-26 08:57:00,58.2,32.7,30.03,NNE,32,1.0,3.0,38,0.00,,,0.00,54,HR-IXPWINDi_r2_v1.2.,2013-02-26 16:57:00,
2013-02-26 09:02:00,58.9,33.3,30.04,NE,45,1.0,3.0,38,0.00,,,0.00,54,HR-IXPWINDi_r2_v1.2.,2013-02-26 17:02:00,
2013-02-26 09:07:00,58.8,36.3,30.04,SSE,159,0.0,3.0,43,0.00,,,0.00,86,HR-IXPWINDi_r2_v1.2.,2013-02-26 17:07:00,
2013-02-26 09:13:00,58.6,36.1,30.04,SE,135,1.0,3.0,43,0.00,,,0.00,181,HR-IXPWINDi_r2_v1.2.,2013-02-26 17:13:00,
2013-02-26 09:18:00,58.7,31.8,30.04,SE,135,0.0,2.0,36,0.00,,,0.00,62,HR-IXPWINDi_r2_v1.2.,2013-02-26 17:18:00,
2013-02-26 09:23:00,59.2,34.2,30.04,SE,135,1.0,2.0,39,0.00,,,0.00,118,HR-IXPWINDi_r2_v1.2.,2013-02-26 17:23:00,
2013-02-26 09:28:00,60.3,33.9,30.04,SSE,167,1.0,3.0,37,0.00,,,0.00,83,HR-IXPWINDi_r2_v1.2.,2013-02-26 17:28:00,
2013-02-26 09:34:00,61.0,33.1,30.04,SSE,168,3.0,5.0,35,0.00,,,0.00,65,HR-IXPWINDi_r2_v1.2.,2013-02-26 17:34:00,
2013-02-26 09:39:00,61.0,31.7,30.04,SSE,167,1.0,5.0,33,0.00,,,0.00,88,HR-IXPWINDi_r2_v1.2.,2013-02-26 17:39:00,
2013-02-26 09:44:00,61.3,32.7,30.04,SSE,157,0.0,4.0,34,0.00,,,0.00,90,HR-IXPWINDi_r2_v1.2.,2013-02-26 17:44:00,
2013-02-26 09:49:00,62.2,29.5,30.04,ESE,109,2.0,3.0,29,0.00,,,0.00,100,HR-IXPWINDi_r2_v1.2.,2013-02-26 17:49:00,
2013-02-26 09:54:00,62.4,31.3,30.04,ESE,103,0.0,3.0,31,0.00,,,0.00,352,HR-IXPWINDi_r2_v1.2.,2013-02-26 17:54:00,
2013-02-26 10:00:00,62.6,31.5,30.04,ESE,111,0.0,3.0,31,0.00,,,0.00,504,HR-IXPWINDi_r2_v1.2.,2013-02-26 18:00:00,
2013-02-26 10:05:00,62.9,32.6,30.04,SE,125,0.0,3.0,32,0.00,,,0.00,492,HR-IXPWINDi_r2_v1.2.,2013-02-26 18:05:00,
2013-02-26 10:10:00,63.3,32.9,30.04,South,182,0.0,5.0,32,0.00,,,0.00,489,HR-IXPWINDi_r2_v1.2.,2013-02-26 18:10:00,
2013-02-26 10:15:00,63.6,32.4,30.03,East,95,1.0,5.0,31,0.00,,,0.00,506,HR-IXPWINDi_r2_v1.2.,2013-02-26 18:15:00,
2013-02-26 10:20:00,63.5,30.7,30.03,East,84,2.0,4.0,29,0.00,,,0.00,536,HR-IXPWINDi_r2_v1.2.,2013-02-26 18:20:00,
2013-02-26 10:25:00,64.1,32.0,30.03,South,169,1.0,5.0,30,0.00,,,0.00,578,HR-IXPWINDi_r2_v1.2.,2013-02-26 18:25:00,
2013-02-26 10:31:00,65.5,32.4,30.03,SSE,163,1.0,5.0,29,0.00,,,0.00,622,HR-IXPWINDi_r2_v1.2.,2013-02-26 18:31:00,
2013-02-26 10:36:00,66.0,31.0,30.03,SE,127,2.0,6.0,27,0.00,,,0.00,670,HR-IXPWINDi_r2_v1.2.,2013-02-26 18:36:00,
2013-02-26 10:41:00,66.5,31.5,30.03,East,101,1.0,6.0,27,0.00,,,0.00,682,HR-IXPWINDi_r2_v1.2.,2013-02-26 18:41:00,
2013-02-26 10:46:00,66.9,27.9,30.03,SSE,168,1.0,6.0,23,0.00,,,0.00,707,HR-IXPWINDi_r2_v1.2.,2013-02-26 18:46:00,
2013-02-26 10:51:00,67.0,26.9,30.03,South,175,1.0,6.0,22,0.00,,,0.00,738,HR-IXPWINDi_r2_v1.2.,2013-02-26 18:51:00,
2013-02-26 10:57:00,67.5,30.4,30.02,ESE,107,1.0,6.0,25,0.00,,,0.00,745,HR-IXPWINDi_r2_v1.2.,2013-02-26 18:57:00,
2013-02-26 11:02:00,68.1,30.9,30.02,South,175,2.0,6.0,25,0.00,,,0.00,756,HR-IXPWINDi_r2_v1.2.,2013-02-26 19:02:00,
2013-02-26 11:07:00,68.5,30.3,30.02,ESE,104,1.0,6.0,24,0.00,,,0.00,754,HR-IXPWINDi_r2_v1.2.,2013-02-26 19:07:00,
2013-02-26 11:13:00,69.1,28.6,30.02,North,5,3.0,5.0,22,0.00,,,0.00,737,HR-IXPWINDi_r2_v1.2.,2013-02-26 19:13:00,
2013-02-26 11:18:00,70.0,29.4,30.02,NNE,19,1.0,3.0,22,0.00,,,0.00,700,HR-IXPWINDi_r2_v1.2.,2013-02-26 19:18:00,
2013-02-26 11:23:00,70.3,27.3,30.01,West,271,2.0,4.0,20,0.00,,,0.00,654,HR-IXPWINDi_r2_v1.2.,2013-02-26 19:23:00,
2013-02-26 11:28:00,69.7,29.2,30.01,WSW,245,0.0,4.0,22,0.00,,,0.00,615,HR-IXPWINDi_r2_v1.2.,2013-02-26 19:28:00,
2013-02-26 11:33:00,71.7,30.8,30.01,North,5,0.0,4.0,22,0.00,,,0.00,596,HR-IXPWINDi_r2_v1.2.,2013-02-26 19:33:00,
2013-02-26 11:38:00,71.7,31.9,30.01,WNW,284,3.0,5.0,23,0.00,,,0.00,599,HR-IXPWINDi_r2_v1.2.,2013-02-26 19:38:00,
2013-02-26 11:44:00,71.5,29.5,30.00,SSW,213,3.0,6.0,21,0.00,,,0.00,629,HR-IXPWINDi_r2_v1.2.,2013-02-26 19:44:00,
2013-02-26 11:49:00,73.0,29.6,30.00,NNW,329,3.0,6.0,20,0.00,,,0.00,679,HR-IXPWINDi_r2_v1.2.,2013-02-26 19:49:00,
2013-02-26 11:54:00,74.4,30.7,30.00,NNE,33,2.0,5.0,20,0.00,,,0.00,724,HR-IXPWINDi_r2_v1.2.,2013-02-26 19:54:00,
2013-02-26 11:59:00,73.7,28.9,29.99,WNW,284,3.0,3.0,19,0.00,,,0.00,759,HR-IXPWINDi_r2_v1.2.,2013-02-26 19:59:00,
2013-02-26 12:05:00,73.2,29.7,29.99,West,281,1.0,3.0,20,0.00,,,0.00,780,HR-IXPWINDi_r2_v1.2.,2013-02-26 20:05:00,
2013-02-26 12:10:00,74.8,29.8,29.98,ENE,77,1.0,4.0,19,0.00,,,0.00,782,HR-IXPWINDi_r2_v1.2.,2013-02-26 20:10:00,
2013-02-26 12:15:00,73.5,30.0,29.98,SE,135,1.0,4.0,20,0.00,,,0.00,784,HR-IXPWINDi_r2_v1.2.,2013-02-26 20:15:00,
2013-02-26 12:20:00,75.8,30.6,29.98,South,172,2.0,8.0,19,0.00,,,0.00,780,HR-IXPWINDi_r2_v1.2.,2013-02-26 20:20:00,
2013-02-26 12:25:00,76.0,30.8,29.98,East,89,2.0,9.0,19,0.00,,,0.00,780,HR-IXPWINDi_r2_v1.2.,2013-02-26 20:25:00,
2013-02-26 12:31:00,74.9,29.9,29.98,East,88,5.0,9.0,19,0.00,,,0.00,779,HR-IXPWINDi_r2_v1.2.,2013-02-26 20:31:00,
2013-02-26 12:36:00,75.4,29.0,29.98,ESE,115,5.0,9.0,18,0.00,,,0.00,775,HR-IXPWINDi_r2_v1.2.,2013-02-26 20:36:00,
2013-02-26 12:41:00,74.8,28.5,29.98,ESE,106,3.0,9.0,18,0.00,,,0.00,770,HR-IXPWINDi_r2_v1.2.,2013-02-26 20:41:00,
2013-02-26 12:46:00,74.1,26.5,29.98,ENE,67,7.0,10.0,17,0.00,,,0.00,766,HR-IXPWINDi_r2_v1.2.,2013-02-26 20:46:00,
2013-02-26 12:51:00,74.5,30.8,29.97,ESE,104,9.0,11.0,20,0.00,,,0.00,761,HR-IXPWINDi_r2_v1.2.,2013-02-26 20:51:00,
2013-02-26 12:56:00,74.5,26.8,29.97,East,82,5.0,13.0,17,0.00,,,0.00,759,HR-IXPWINDi_r2_v1.2.,2013-02-26 20:56:00,
2013-02-26 13:02:00,74.6,26.9,29.97,East,96,8.0,13.0,17,0.00,,,0.00,752,HR-IXPWINDi_r2_v1.2.,2013-02-26 21:02:00,
2013-02-26 13:07:00,74.7,28.4,29.97,East,85,3.0,9.0,18,0.00,,,0.00,747,HR-IXPWINDi_r2_v1.2.,2013-02-26 21:07:00,
2013-02-26 13:12:00,75.4,26.1,29.97,East,92,5.0,9.0,16,0.00,,,0.00,742,HR-IXPWINDi_r2_v1.2.,2013-02-26 21:12:00,
2013-02-26 13:17:00,75.2,28.8,29.97,South,178,5.0,10.0,18,0.00,,,0.00,731,HR-IXPWINDi_r2_v1.2.,2013-02-26 21:17:00,
2013-02-26 13:22:00,76.8,27.2,29.97,SE,131,1.0,10.0,16,0.00,,,0.00,714,HR-IXPWINDi_r2_v1.2.,2013-02-26 21:22:00,
2013-02-26 13:27:00,76.4,26.9,29.97,ENE,76,2.0,10.0,16,0.00,,,0.00,701,HR-IXPWINDi_r2_v1.2.,2013-02-26 21:27:00,
2013-02-26 13:32:00,76.7,30.0,29.96,SSW,200,1.0,8.0,18,0.00,,,0.00,682,HR-IXPWINDi_r2_v1.2.,2013-02-26 21:32:00,
2013-02-26 13:37:00,76.1,34.5,29.97,South,190,2.0,9.0,22,0.00,,,0.00,675,HR-IXPWINDi_r2_v1.2.,2013-02-26 21:37:00,
2013-02-26 13:43:00,75.1,31.3,29.96,SW,234,2.0,9.0,20,0.00,,,0.00,675,HR-IXPWINDi_r2_v1.2.,2013-02-26 21:43:00,
2013-02-26 13:48:00,75.7,30.5,29.96,South,186,6.0,8.0,19,0.00,,,0.00,675,HR-IXPWINDi_r2_v1.2.,2013-02-26 21:48:00,
2013-02-26 13:53:00,76.0,32.0,29.96,SSW,193,6.0,10.0,20,0.00,,,0.00,675,HR-IXPWINDi_r2_v1.2.,2013-02-26 21:53:00,
2013-02-26 13:58:00,75.1,32.5,29.97,South,186,2.0,10.0,21,0.00,,,0.00,664,HR-IXPWINDi_r2_v1.2.,2013-02-26 21:58:00,
2013-02-26 14:03:00,75.2,31.4,29.96,SE,134,4.0,10.0,20,0.00,,,0.00,652,HR-IXPWINDi_r2_v1.2.,2013-02-26 22:03:00,
2013-02-26 14:09:00,74.8,35.6,29.96,SSE,161,4.0,10.0,24,0.00,,,0.00,642,HR-IXPWINDi_r2_v1.2.,2013-02-26 22:09:00,
2013-02-26 14:14:00,73.4,33.3,29.97,South,186,4.0,8.0,23,0.00,,,0.00,631,HR-IXPWINDi_r2_v1.2.,2013-02-26 22:14:00,
2013-02-26 14:19:00,73.6,33.5,29.97,SSW,194,3.0,9.0,23,0.00,,,0.00,615,HR-IXPWINDi_r2_v1.2.,2013-02-26 22:19:00,
2013-02-26 14:24:00,72.9,32.9,29.97,South,185,7.0,10.0,23,0.00,,,0.00,605,HR-IXPWINDi_r2_v1.2.,2013-02-26 22:24:00,
2013-02-26 14:30:00,72.6,34.7,29.97,SSE,165,5.0,10.0,25,0.00,,,0.00,591,HR-IXPWINDi_r2_v1.2.,2013-02-26 22:30:00,
2013-02-26 14:35:00,72.5,32.6,29.97,SSW,195,7.0,10.0,23,0.00,,,0.00,578,HR-IXPWINDi_r2_v1.2.,2013-02-26 22:35:00,
2013-02-26 14:40:00,72.0,32.2,29.97,SSW,192,7.0,10.0,23,0.00,,,0.00,563,HR-IXPWINDi_r2_v1.2.,2013-02-26 22:40:00,
2013-02-26 14:45:00,72.2,33.4,29.98,South,187,5.0,11.0,24,0.00,,,0.00,550,HR-IXPWINDi_r2_v1.2.,2013-02-26 22:45:00,
2013-02-26 14:50:00,72.1,33.3,29.98,South,180,5.0,11.0,24,0.00,,,0.00,536,HR-IXPWINDi_r2_v1.2.,2013-02-26 22:50:00,
2013-02-26 14:56:00,71.2,31.5,29.98,SSE,155,4.0,10.0,23,0.00,,,0.00,520,HR-IXPWINDi_r2_v1.2.,2013-02-26 22:56:00,
2013-02-26 15:01:00,71.8,32.0,29.98,SSE,165,3.0,10.0,23,0.00,,,0.00,504,HR-IXPWINDi_r2_v1.2.,2013-02-26 23:01:00,
2013-02-26 15:06:00,72.2,32.3,29.98,SSE,163,2.0,8.0,23,0.00,,,0.00,489,HR-IXPWINDi_r2_v1.2.,2013-02-26 23:06:00,
2013-02-26 15:12:00,71.9,33.1,29.98,SSW,198,7.0,8.0,24,0.00,,,0.00,475,HR-IXPWINDi_r2_v1.2.,2013-02-26 23:12:00,
2013-02-26 15:17:00,72.3,32.4,29.98,South,175,2.0,8.0,23,0.00,,,0.00,459,HR-IXPWINDi_r2_v1.2.,2013-02-26 23:17:00,
2013-02-26 15:22:00,71.7,33.0,29.98,SSW,196,2.0,8.0,24,0.00,,,0.00,441,HR-IXPWINDi_r2_v1.2.,2013-02-26 23:22:00,
2013-02-26 15:27:00,72.4,33.6,29.98,SSE,165,1.0,5.0,24,0.00,,,0.00,425,HR-IXPWINDi_r2_v1.2.,2013-02-26 23:27:00,
2013-02-26 15:33:00,72.9,34.0,29.98,SSE,161,2.0,6.0,24,0.00,,,0.00,410,HR-IXPWINDi_r2_v1.2.,2013-02-26 23:33:00,
2013-02-26 15:38:00,72.5,33.6,29.98,SSE,164,3.0,6.0,24,0.00,,,0.00,388,HR-IXPWINDi_r2_v1.2.,2013-02-26 23:38:00,
2013-02-26 15:43:00,72.3,33.5,29.98,SSE,163,2.0,5.0,24,0.00,,,0.00,376,HR-IXPWINDi_r2_v1.2.,2013-02-26 23:43:00,
2013-02-26 15:48:00,72.1,32.3,29.98,South,186,5.0,7.0,23,0.00,,,0.00,357,HR-IXPWINDi_r2_v1.2.,2013-02-26 23:48:00,
2013-02-26 15:53:00,71.0,31.3,29.98,SSW,207,1.0,7.0,23,0.00,,,0.00,341,HR-IXPWINDi_r2_v1.2.,2013-02-26 23:53:00,
2013-02-26 15:58:00,70.7,32.1,29.97,SSW,193,1.0,7.0,24,0.00,,,0.00,322,HR-IXPWINDi_r2_v1.2.,2013-02-26 23:58:00,
2013-02-26 16:03:00,70.6,31.0,29.97,South,186,1.0,5.0,23,0.00,,,0.00,306,HR-IXPWINDi_r2_v1.2.,2013-02-27 00:03:00,
2013-02-26 16:08:00,69.9,30.4,29.98,South,174,2.0,5.0,23,0.00,,,0.00,287,HR-IXPWINDi_r2_v1.2.,2013-02-27 00:08:00,
2013-02-26 16:14:00,69.6,30.2,29.98,South,170,0.0,5.0,23,0.00,,,0.00,267,HR-IXPWINDi_r2_v1.2.,2013-02-27 00:14:00,
2013-02-26 16:19:00,69.2,30.9,29.98,South,180,1.0,5.0,24,0.00,,,0.00,67,HR-IXPWINDi_r2_v1.2.,2013-02-27 00:19:00,
2013-02-26 16:24:00,68.6,29.3,29.98,South,184,3.0,5.0,23,0.00,,,0.00,44,HR-IXPWINDi_r2_v1.2.,2013-02-27 00:24:00,
2013-02-26 16:29:00,68.2,30.0,29.98,SSW,208,1.0,6.0,24,0.00,,,0.00,42,HR-IXPWINDi_r2_v1.2.,2013-02-27 00:29:00,
2013-02-26 16:35:00,67.7,30.6,29.98,South,188,0.0,6.0,25,0.00,,,0.00,40,HR-IXPWINDi_r2_v1.2.,2013-02-27 00:35:00,
2013-02-26 16:40:00,67.2,31.1,29.98,SSW,196,1.0,4.0,26,0.00,,,0.00,33,HR-IXPWINDi_r2_v1.2.,2013-02-27 00:40:00,
2013-02-26 16:45:00,66.7,31.6,29.98,SSW,198,1.0,3.0,27,0.00,,,0.00,30,HR-IXPWINDi_r2_v1.2.,2013-02-27 00:45:00,
2013-02-26 16:50:00,66.3,31.3,29.98,South,189,2.0,4.0,27,0.00,,,0.00,26,HR-IXPWINDi_r2_v1.2.,2013-02-27 00:50:00,
2013-02-26 16:55:00,66.2,30.3,29.98,South,190,1.0,5.0,26,0.00,,,0.00,25,HR-IXPWINDi_r2_v1.2.,2013-02-27 00:55:00,
2013-02-26 17:01:00,66.1,30.2,29.98,South,174,1.0,5.0,26,0.00,,,0.00,23,HR-IXPWINDi_r2_v1.2.,2013-02-27 01:01:00,
2013-02-26 17:06:00,65.2,32.1,29.98,South,174,0.0,4.0,29,0.00,,,0.00,23,HR-IXPWINDi_r2_v1.2.,2013-02-27 01:06:00,
2013-02-26 17:11:00,63.7,31.7,29.98,South,174,0.0,1.0,30,0.00,,,0.00,21,HR-IXPWINDi_r2_v1.2.,2013-02-27 01:11:00,
2013-02-26 17:16:00,62.4,32.9,29.98,South,174,1.0,1.0,33,0.00,,,0.00,19,HR-IXPWINDi_r2_v1.2.,2013-02-27 01:16:00,
2013-02-26 17:22:00,61.5,32.8,29.98,South,174,1.0,2.0,34,0.00,,,0.00,18,HR-IXPWINDi_r2_v1.2.,2013-02-27 01:22:00,
2013-02-26 17:27:00,61.9,34.6,29.99,South,182,0.0,3.0,36,0.00,,,0.00,16,HR-IXPWINDi_r2_v1.2.,2013-02-27 01:27:00,
2013-02-26 17:32:00,60.0,36.2,29.99,SSW,199,1.0,3.0,41,0.00,,,0.00,12,HR-IXPWINDi_r2_v1.2.,2013-02-27 01:32:00,
2013-02-26 17:38:00,59.2,37.3,29.99,SSW,199,0.0,3.0,44,0.00,,,0.00,11,HR-IXPWINDi_r2_v1.2.,2013-02-27 01:38:00,
2013-02-26 17:43:00,58.2,36.9,29.99,SSW,199,0.0,1.0,45,0.00,,,0.00,7,HR-IXPWINDi_r2_v1.2.,2013-02-27 01:43:00,
2013-02-26 17:48:00,56.6,37.1,29.99,SSW,199,1.0,1.0,48,0.00,,,0.00,5,HR-IXPWINDi_r2_v1.2.,2013-02-27 01:48:00,
2013-02-26 17:53:00,55.6,36.7,29.99,SSW,199,1.0,2.0,49,0.00,,,0.00,0,HR-IXPWINDi_r2_v1.2.,2013-02-27 01:53:00,
2013-02-26 17:58:00,54.8,36.5,30.00,SSW,206,1.0,2.0,50,0.00,,,0.00,0,HR-IXPWINDi_r2_v1.2.,2013-02-27 01:58:00,
2013-02-26 18:04:00,54.4,36.1,30.00,SSW,206,0.0,2.0,50,0.00,,,0.00,0,HR-IXPWINDi_r2_v1.2.,2013-02-27 02:04:00,
2013-02-26 18:09:00,54.1,35.3,30.00,SSW,206,0.0,2.0,49,0.00,,,0.00,0,HR-IXPWINDi_r2_v1.2.,2013-02-27 02:09:00,
2013-02-26 18:14:00,55.1,34.1,30.01,WSW,238,2.0,3.0,45,0.00,,,0.00,0,HR-IXPWINDi_r2_v1.2.,2013-02-27 02:14:00,
2013-02-26 18:19:00,55.1,34.7,30.01,WSW,238,1.0,3.0,46,0.00,,,0.00,0,HR-IXPWINDi_r2_v1.2.,2013-02-27 02:19:00,
2013-02-26 18:24:00,54.3,34.5,30.01,WSW,239,1.0,3.0,47,0.00,,,0.00,0,HR-IXPWINDi_r2_v1.2.,2013-02-27 02:24:00,
2013-02-26 18:30:00,54.2,34.4,30.01,West,263,3.0,3.0,47,0.00,,,0.00,0,HR-IXPWINDi_r2_v1.2.,2013-02-27 02:30:00,
2013-02-26 18:35:00,53.8,35.1,30.01,West,275,1.0,3.0,49,0.00,,,0.00,0,HR-IXPWINDi_r2_v1.2.,2013-02-27 02:35:00,
2013-02-26 18:40:00,53.8,34.0,30.02,NW,320,4.0,4.0,47,0.00,,,0.00,0,HR-IXPWINDi_r2_v1.2.,2013-02-27 02:40:00,
2013-02-26 18:45:00,54.2,34.4,30.02,NNW,327,1.0,4.0,47,0.00,,,0.00,0,HR-IXPWINDi_r2_v1.2.,2013-02-27 02:45:00,
2013-02-26 18:50:00,54.1,34.3,30.02,NNW,328,2.0,4.0,47,0.00,,,0.00,0,HR-IXPWINDi_r2_v1.2.,2013-02-27 02:50:00,
2013-02-26 18:56:00,54.7,33.2,30.02,WNW,292,4.0,5.0,44,0.00,,,0.00,0,HR-IXPWINDi_r2_v1.2.,2013-02-27 02:56:00,
2013-02-26 19:01:00,55.5,32.8,30.02,WNW,294,2.0,6.0,42,0.00,,,0.00,0,HR-IXPWINDi_r2_v1.2.,2013-02-27 03:01:00,
2013-02-26 19:06:00,55.3,32.6,30.03,WNW,294,0.0,6.0,42,0.00,,,0.00,0,HR-IXPWINDi_r2_v1.2.,2013-02-27 03:06:00,
2013-02-26 19:11:00,54.3,33.9,30.03,NNW,334,0.0,4.0,46,0.00,,,0.00,0,HR-IXPWINDi_r2_v1.2.,2013-02-27 03:11:00,
2013-02-26 19:16:00,53.6,33.3,30.03,NNW,334,0.0,3.0,46,0.00,,,0.00,0,HR-IXPWINDi_r2_v1.2.,2013-02-27 03:16:00,
2013-02-26 19:21:00,53.5,33.7,30.04,NNW,334,0.0,2.0,47,0.00,,,0.00,0,HR-IXPWINDi_r2_v1.2.,2013-02-27 03:21:00,
2013-02-26 19:26:00,52.3,33.2,30.04,NNW,334,0.0,2.0,48,0.00,,,0.00,0,HR-IXPWINDi_r2_v1.2.,2013-02-27 03:26:00,
2013-02-26 19:31:00,51.1,34.5,30.04,NNW,334,0.0,2.0,53,0.00,,,0.00,0,HR-IXPWINDi_r2_v1.2.,2013-02-27 03:31:00,
2013-02-26 19:37:00,50.4,33.4,30.04,NNW,334,1.0,2.0,52,0.00,,,0.00,0,HR-IXPWINDi_r2_v1.2.,2013-02-27 03:37:00,
2013-02-26 19:42:00,49.5,34.9,30.04,NNW,334,0.0,2.0,57,0.00,,,0.00,0,HR-IXPWINDi_r2_v1.2.,2013-02-27 03:42:00,
2013-02-26 19:47:00,49.0,34.8,30.04,NNW,334,0.0,2.0,58,0.00,,,0.00,0,HR-IXPWINDi_r2_v1.2.,2013-02-27 03:47:00,
2013-02-26 19:52:00,48.8,33.8,30.04,NNW,334,1.0,2.0,56,0.00,,,0.00,0,HR-IXPWINDi_r2_v1.2.,2013-02-27 03:52:00,
2013-02-26 19:57:00,49.0,33.5,30.04,NW,306,0.0,3.0,55,0.00,,,0.00,0,HR-IXPWINDi_r2_v1.2.,2013-02-27 03:57:00,
2013-02-26 20:03:00,49.0,33.5,30.04,NW,306,2.0,3.0,55,0.00,,,0.00,0,HR-IXPWINDi_r2_v1.2.,2013-02-27 04:03:00,
2013-02-26 20:08:00,48.5,33.9,30.05,NW,306,0.0,2.0,57,0.00,,,0.00,0,HR-IXPWINDi_r2_v1.2.,2013-02-27 04:08:00,
2013-02-26 20:13:00,48.5,33.5,30.05,NW,310,1.0,3.0,56,0.00,,,0.00,0,HR-IXPWINDi_r2_v1.2.,2013-02-27 04:13:00,
2013-02-26 20:18:00,48.4,32.9,30.05,WNW,303,3.0,3.0,55,0.00,,,0.00,0,HR-IXPWINDi_r2_v1.2.,2013-02-27 04:18:00,
2013-02-26 20:23:00,48.7,32.8,30.05,NW,305,0.0,3.0,54,0.00,,,0.00,0,HR-IXPWINDi_r2_v1.2.,2013-02-27 04:23:00,
2013-02-26 20:29:00,48.4,31.6,30.05,WNW,303,2.0,3.0,52,0.00,,,0.00,0,HR-IXPWINDi_r2_v1.2.,2013-02-27 04:29:00,
2013-02-26 20:34:00,49.7,31.3,30.05,NW,308,1.0,3.0,49,0.00,,,0.00,0,HR-IXPWINDi_r2_v1.2.,2013-02-27 04:34:00,
2013-02-26 20:39:00,49.0,32.1,30.06,NW,308,1.0,3.0,52,0.00,,,0.00,0,HR-IXPWINDi_r2_v1.2.,2013-02-27 04:39:00,
2013-02-26 20:44:00,48.6,32.2,30.06,NW,308,1.0,3.0,53,0.00,,,0.00,0,HR-IXPWINDi_r2_v1.2.,2013-02-27 04:44:00,
2013-02-26 20:49:00,47.7,32.3,30.06,NW,308,2.0,3.0,55,0.00,,,0.00,0,HR-IXPWINDi_r2_v1.2.,2013-02-27 04:49:00,
2013-02-26 20:55:00,48.2,29.9,30.06,NW,312,2.0,3.0,49,0.00,,,0.00,0,HR-IXPWINDi_r2_v1.2.,2013-02-27 04:55:00,
2013-02-26 21:00:00,48.6,30.8,30.06,NNW,346,2.0,3.0,50,0.00,,,0.00,0,HR-IXPWINDi_r2_v1.2.,2013-02-27 05:00:00,
2013-02-26 21:05:00,49.2,29.8,30.07,NW,311,2.0,5.0,47,0.00,,,0.00,0,HR-IXPWINDi_r2_v1.2.,2013-02-27 05:05:00,
2013-02-26 21:10:00,49.7,29.2,30.07,NW,307,2.0,5.0,45,0.00,,,0.00,0,HR-IXPWINDi_r2_v1.2.,2013-02-27 05:10:00,
2013-02-26 21:15:00,49.6,28.6,30.07,WNW,298,2.0,5.0,44,0.00,,,0.00,0,HR-IXPWINDi_r2_v1.2.,2013-02-27 05:15:00,
2013-02-26 21:20:00,49.7,28.7,30.07,WNW,284,5.0,6.0,44,0.00,,,0.00,0,HR-IXPWINDi_r2_v1.2.,2013-02-27 05:20:00,
2013-02-26 21:26:00,50.0,28.4,30.07,NW,324,0.0,8.0,43,0.00,,,0.00,0,HR-IXPWINDi_r2_v1.2.,2013-02-27 05:26:00,
2013-02-26 21:31:00,49.4,28.9,30.08,NW,314,2.0,6.0,45,0.00,,,0.00,0,HR-IXPWINDi_r2_v1.2.,2013-02-27 05:31:00,
2013-02-26 21:36:00,49.7,27.5,30.08,WNW,292,4.0,5.0,42,0.00,,,0.00,0,HR-IXPWINDi_r2_v1.2.,2013-02-27 05:36:00,
2013-02-26 21:41:00,49.7,27.5,30.08,WNW,288,5.0,5.0,42,0.00,,,0.00,0,HR-IXPWINDi_r2_v1.2.,2013-02-27 05:41:00,
2013-02-26 21:46:00,49.9,27.1,30.08,NW,322,2.0,5.0,41,0.00,,,0.00,0,HR-IXPWINDi_r2_v1.2.,2013-02-27 05:46:00,
2013-02-26 21:52:00,49.0,27.5,30.09,NW,315,2.0,5.0,43,0.00,,,0.00,0,HR-IXPWINDi_r2_v1.2.,2013-02-27 05:52:00,
2013-02-26 21:57:00,48.9,26.2,30.08,WNW,296,3.0,5.0,41,0.00,,,0.00,0,HR-IXPWINDi_r2_v1.2.,2013-02-27 05:57:00,
2013-02-26 22:02:00,49.4,26.1,30.09,WNW,288,6.0,6.0,40,0.00,,,0.00,0,HR-IXPWINDi_r2_v1.2.,2013-02-27 06:02:00,
2013-02-26 22:07:00,50.2,24.9,30.08,WNW,295,1.0,7.0,37,0.00,,,0.00,0,HR-IXPWINDi_r2_v1.2.,2013-02-27 06:07:00,
2013-02-26 22:13:00,49.2,27.6,30.08,NW,326,2.0,7.0,43,0.00,,,0.00,0,HR-IXPWINDi_r2_v1.2.,2013-02-27 06:13:00,
2013-02-26 22:18:00,48.9,25.6,30.08,NW,326,3.0,5.0,40,0.00,,,0.00,0,HR-IXPWINDi_r2_v1.2.,2013-02-27 06:18:00,
2013-02-26 22:23:00,48.8,25.5,30.09,NW,320,2.0,5.0,40,0.00,,,0.00,0,HR-IXPWINDi_r2_v1.2.,2013-02-27 06:23:00,
2013-02-26 22:29:00,49.0,25.1,30.09,NW,304,2.0,4.0,39,0.00,,,0.00,0,HR-IXPWINDi_r2_v1.2.,2013-02-27 06:29:00,
2013-02-26 22:34:00,48.9,24.4,30.09,NW,309,0.0,4.0,38,0.00,,,0.00,0,HR-IXPWINDi_r2_v1.2.,2013-02-27 06:34:00,
2013-02-26 22:39:00,48.9,24.4,30.09,NW,309,1.0,3.0,38,0.00,,,0.00,0,HR-IXPWINDi_r2_v1.2.,2013-02-27 06:39:00,
2013-02-26 22:44:00,48.1,26.6,30.10,NW,306,0.0,3.0,43,0.00,,,0.00,0,HR-IXPWINDi_r2_v1.2.,2013-02-27 06:44:00,
2013-02-26 22:49:00,48.6,24.1,30.10,WNW,295,3.0,7.0,38,0.00,,,0.00,0,HR-IXPWINDi_r2_v1.2.,2013-02-27 06:49:00,
2013-02-26 22:54:00,49.6,25.0,30.10,WNW,295,3.0,7.0,38,0.00,,,0.00,0,HR-IXPWINDi_r2_v1.2.,2013-02-27 06:54:00,
2013-02-26 22:59:00,49.3,25.4,30.10,NNW,346,2.0,7.0,39,0.00,,,0.00,0,HR-IXPWINDi_r2_v1.2.,2013-02-27 06:59:00,
2013-02-26 23:04:00,48.8,24.9,30.10,WNW,288,3.0,6.0,39,0.00,,,0.00,0,HR-IXPWINDi_r2_v1.2.,2013-02-27 07:04:00,
2013-02-26 23:09:00,49.5,24.3,30.11,West,275,4.0,6.0,37,0.00,,,0.00,0,HR-IXPWINDi_r2_v1.2.,2013-02-27 07:09:00,
2013-02-26 23:15:00,49.5,24.3,30.11,WNW,284,1.0,6.0,37,0.00,,,0.00,0,HR-IXPWINDi_r2_v1.2.,2013-02-27 07:15:00,
2013-02-26 23:20:00,48.8,24.9,30.11,North,355,3.0,5.0,39,0.00,,,0.00,0,HR-IXPWINDi_r2_v1.2.,2013-02-27 07:20:00,
2013-02-26 23:25:00,48.1,24.3,30.11,NNW,329,2.0,4.0,39,0.00,,,0.00,0,HR-IXPWINDi_r2_v1.2.,2013-02-27 07:25:00,
2013-02-26 23:30:00,47.9,24.1,30.11,NW,311,1.0,5.0,39,0.00,,,0.00,0,HR-IXPWINDi_r2_v1.2.,2013-02-27 07:30:00,
2013-02-26 23:36:00,48.9,23.8,30.11,WNW,299,3.0,5.0,37,0.00,,,0.00,0,HR-IXPWINDi_r2_v1.2.,2013-02-27 07:36:00,
2013-02-26 23:41:00,49.5,23.6,30.11,WNW,298,3.0,5.0,36,0.00,,,0.00,0,HR-IXPWINDi_r2_v1.2.,2013-02-27 07:41:00,
2013-02-26 23:46:00,49.4,23.6,30.11,WNW,296,3.0,5.0,36,0.00,,,0.00,0,HR-IXPWINDi_r2_v1.2.,2013-02-27 07:46:00,
2013-02-26 23:51:00,49.5,23.0,30.11,NW,304,1.0,5.0,35,0.00,,,0.00,0,HR-IXPWINDi_r2_v1.2.,2013-02-27 07:51:00,
2013-02-26 23:56:00,48.9,23.1,30.11,NW,315,1.0,5.0,36,0.00,,,0.00,0,HR-IXPWINDi_r2_v1.2.,2013-02-27 07:56:00,